[[{"header":{"parameterUnit":"m.s-1","parameterCategory":1,"la1":30.2992,"la2":30.254,"lo1":-89.0895,"lo2":-89.0443,"dy":0.0025,"dx":0.0025,"nx":19,"ny":19,"refTime":"2026-05-17T09:00:00:Z","depth":0,"parameterNumber":2,"parameterNumberName":"U-component_of_WINDS"},"data":[0,0,0,-4.0324,-4.0327,-4.0436,-4.0437,-4.0586,-4.0587,0,0,0,0,0,0,0,0,0,0,0,-4.0298,-4.0299,-4.0324,-4.0327,-4.0436,-4.0437,-4.0585,-4.0587,0,0,0,0,0,0,0,0,0,0,0,-4.0297,-4.0299,-4.03,-4.0327,-4.0436,-4.0437,-4.0585,-4.0499,0,0,0,0,0,0,0,0,0,0,-4.0391,-4.0373,-4.0299,-4.0301,-4.0328,-4.0436,-4.0437,-4.0495,-4.0504,-4.054,0,-4.0574,0,-4.0583,-4.0598,-4.0598,0,0,0,-4.0322,-4.0365,-4.0389,-4.0301,-4.0329,-4.0436,-4.0386,-4.05,-4.0511,-4.0553,-4.0576,-4.0581,-4.0586,-4.0599,-4.0599,-4.0823,-4.0824,0,0,-4.0316,-4.0321,-4.0382,-4.0397,-4.0381,-4.0382,-4.0389,-4.0507,-4.0532,-4.0577,-4.0585,-4.0588,-4.06,-4.0601,-4.0822,-4.0823,0,0,0,-4.0302,-4.0317,-4.0338,-4.0391,-4.041,-4.0385,-4.0393,-4.0526,-4.0533,-4.0586,-4.059,-4.0601,-4.0603,-4.082,-4.0822,-4.0889,0,0,0,-4.0298,-4.0308,-4.0335,-4.0339,-4.0408,-4.047,-4.0411,-4.0525,-4.0538,-4.0589,-4.0601,-4.0604,-4.0819,-4.0821,-4.0884,-4.0918,0,0,0,-4.0289,-4.0307,-4.0325,-4.0339,-4.0387,-4.0468,-4.0481,-4.0528,-4.0541,-4.0598,-4.0605,-4.0818,-4.0821,-4.0879,-4.0911,-4.0978,0,0,0,-4.028,-4.0383,-4.0326,-4.0443,-4.0386,-4.0509,-4.048,-4.0571,-4.0629,-4.0601,-4.0819,-4.0822,-4.0878,-4.0907,-4.0973,-4.1033,-4.1059,0,0,-4.0412,-4.0399,-4.0467,-4.042,-4.0554,-4.0492,-4.0635,-4.0684,-4.0685,-4.0777,-4.0782,-4.0885,-4.0911,-4.0977,-4.1206,-4.1227,0,0,0,-4.051,-4.0559,-4.0594,-4.0649,-4.069,-4.0726,-4.0752,-4.0771,-4.0848,-4.0733,-4.0928,-4.0943,-4.0982,-4.101,-4.1027,-4.106,-4.0836,-4.0836,-4.0835,-4.0702,-4.0699,-4.0812,-4.0822,-4.0877,-4.0903,-4.0946,-4.0975,-4.0956,-4.1002,-4.1028,-4.1168,-4.1201,-4.1215,-4.1248,-4.1061,-4.1062,-4.1062,-4.1062,-4.0895,-4.0963,-4.0936,-4.1035,-4.1031,-4.1114,-4.1144,-4.1128,-4.1204,-4.1148,-4.1181,-4.1118,-4.1237,-4.1266,-4.1067,-4.1066,-4.1066,-4.1065,-4.1065,-4.1018,-4.105,-4.1072,-4.1152,-4.1214,-4.1221,-4.1296,-4.129,-4.1285,-4.1319,-4.1345,-4.1344,-4.1341,-4.1332,-4.1333,-4.1333,-4.1334,-4.1334,-4.1335,-4.1137,-4.1159,-4.1223,-4.1276,-4.1311,-4.1356,-4.1385,-4.1419,-4.1455,-4.1445,-4.1445,-4.142,-4.125,-4.1207,-4.1342,-4.1341,-4.134,-4.1339,-4.1338,-4.133,-4.1286,-4.1384,-4.142,-4.1481,-4.1543,-4.1535,-4.1606,-4.1633,-4.167,-4.164,-4.1515,-4.1501,-4.1487,-4.145,-4.1641,-4.1641,-4.1641,-4.1641,-4.1433,-4.1426,-4.1525,-4.1582,-4.1637,-4.1641,-4.1752,-4.1776,-4.1794,-4.181,-4.1783,-4.1735,-4.1721,-4.1714,-4.1696,-4.1661,-4.1901,-4.1901,-4.1902,-4.155,-4.1549,-4.1644,-4.1661,-4.1709,-4.175,-4.1854,-4.192,-4.1931,-4.1912,-4.1823,-4.1812,-4.1735,-4.171,-4.1686,-4.1657,-4.1594,0,0]},{"header":{"parameterUnit":"m.s-1","parameterCategory":1,"la1":30.2992,"la2":30.254,"lo1":-89.0895,"lo2":-89.0443,"dy":0.0025,"dx":0.0025,"nx":19,"ny":19,"refTime":"2026-05-17T09:00:00:Z","depth":0,"parameterNumber":3,"parameterNumberName":"V-component_of_WINDS"},"data":[0,0,0,2.7467,2.7468,2.7514,2.7514,2.7579,2.7579,0,0,0,0,0,0,0,0,0,0,0,2.7459,2.7459,2.7467,2.7469,2.7514,2.7514,2.7578,2.7579,0,0,0,0,0,0,0,0,0,0,0,2.7458,2.7459,2.746,2.7469,2.7514,2.7514,2.7578,2.7541,0,0,0,0,0,0,0,0,0,0,2.7496,2.7493,2.7459,2.746,2.7469,2.7514,2.7514,2.754,2.7544,2.7561,0,2.7578,0,2.758,2.7584,2.7584,0,0,0,2.7465,2.7489,2.7498,2.746,2.7469,2.7514,2.7492,2.7542,2.7547,2.7567,2.7579,2.7581,2.7581,2.7584,2.7585,2.77,2.7701,0,0,2.7462,2.7469,2.7494,2.7501,2.7495,2.7491,2.7494,2.7545,2.7558,2.7579,2.7583,2.7582,2.7585,2.7585,2.7699,2.77,0,0,0,2.7458,2.7467,2.7474,2.7499,2.7506,2.7492,2.7496,2.7556,2.7558,2.7583,2.7583,2.7585,2.7586,2.7698,2.77,2.7743,0,0,0,2.7456,2.7465,2.7473,2.7478,2.7506,2.7532,2.7506,2.7554,2.756,2.7583,2.7585,2.7587,2.7698,2.7699,2.774,2.7762,0,0,0,2.7454,2.7464,2.7473,2.7478,2.7498,2.7531,2.7535,2.7555,2.756,2.7584,2.7587,2.7697,2.7699,2.7737,2.7757,2.7795,0,0,0,2.7454,2.7509,2.7474,2.7535,2.7498,2.7558,2.7535,2.7579,2.7605,2.7586,2.7698,2.7699,2.7736,2.7755,2.7792,2.7828,2.7843,0,0,2.7528,2.7518,2.7554,2.7524,2.7592,2.755,2.7624,2.7641,2.7636,2.7679,2.7681,2.7741,2.7757,2.7794,2.7927,2.7939,0,0,0,2.758,2.7606,2.7623,2.7649,2.7664,2.7679,2.7683,2.769,2.7726,2.766,2.7764,2.7773,2.7795,2.7812,2.7822,2.784,2.7707,2.7707,2.7707,2.7694,2.7687,2.7746,2.7744,2.777,2.7775,2.7795,2.7804,2.7788,2.7812,2.7825,2.7907,2.7927,2.7935,2.7954,2.7843,2.7843,2.7843,2.7843,2.7803,2.7839,2.7817,2.7867,2.7858,2.79,2.7907,2.7894,2.7931,2.7896,2.7915,2.7878,2.7948,2.7965,2.7847,2.7846,2.7846,2.7845,2.7845,2.7877,2.7893,2.7901,2.7939,2.7968,2.7964,2.8001,2.7991,2.7982,2.8001,2.8013,2.8013,2.8011,2.8007,2.8008,2.8008,2.8008,2.8008,2.8009,2.7952,2.7959,2.7992,2.8014,2.803,2.805,2.8056,2.8071,2.8085,2.8075,2.8075,2.8057,2.7957,2.7932,2.8013,2.8012,2.8012,2.8011,2.8011,2.8065,2.8039,2.809,2.8106,2.8131,2.8162,2.8149,2.8181,2.8192,2.8211,2.8189,2.8116,2.8105,2.8097,2.8076,2.819,2.819,2.819,2.819,2.8129,2.8123,2.8174,2.82,2.8225,2.822,2.8277,2.8283,2.8284,2.8291,2.8273,2.8245,2.8237,2.8231,2.822,2.82,2.8343,2.8343,2.8343,2.8199,2.8195,2.8247,2.8249,2.8268,2.8284,2.8338,2.837,2.8365,2.8349,2.8296,2.8289,2.8244,2.8229,2.8212,2.8195,2.8159,0,0]}]]